Weather History for KMMU - October, 2013

Change the Weather History Date:

Monday, October 28, 2013

  Actual Average Record
Temperature  
Mean Temperature 44 °F -  
Max Temperature 60 °F 61 °F 84 °F (1963)
Min Temperature 28 °F 37 °F 13 °F (1936)
Degree Days  
Heating Degree Days 21    
Moisture  
Dew Point 30 °F    
Average Humidity 75    
Maximum Humidity 93    
Minimum Humidity 34    
Precipitation  
Precipitation 0.00 in - - ()
Sea Level Pressure  
Sea Level Pressure 30.20 in    
Wind  
Wind Speed 1 mph (West)    
Max Wind Speed 14 mph    
Max Gust Speed 22 mph    
Visibility 11 miles    
Events      
Averages and records for this station are not official NWS values.
T = Trace of Precipitation, MM = Missing Value Source: NWS Daily Summary

Daily Weather History Graph

Daily Weather History Graph

Search for Another Location

Airport or City:

Trip Planner

Search our weather history database for the weather conditions in past years. The results will help you decide how hot, cold, wet, or windy it might be!

Date:

Astronomy

Oct. 28, 2013 Rise Set
Actual Time 7:23 AM EDT 5:58 PM EDT
Civil Twilight 6:55 AM EDT 6:26 PM EDT
Nautical Twilight 6:23 AM EDT 6:58 PM EDT
Astronomical Twilight 5:51 AM EDT 7:30 PM EDT
Moon 1:12 AM EDT (10/28) 2:41 PM EDT (10/28)
Length of Visible Light 11h 31m
Length of Day
10h 34m
Waning Crescent, 34% of the Moon is Illuminated
Oct 28
Waning Crescent
Nov 3
New
Nov 10
First Quarter
Nov 17
Full
Nov 25
Last Quarter

Hourly Weather History & Observations

Time (EDT) Temp. Dew Point Humidity Pressure Visibility Wind Dir Wind Speed Gust Speed Precip Events Conditions
12:15 AM 37.4 °F 30.2 °F 75% 30.13 in 10.0 mi Calm Calm - N/A   Clear
12:35 AM 35.6 °F 30.2 °F 81% 30.14 in 10.0 mi Calm Calm - N/A   Clear
12:55 AM 35.6 °F 30.2 °F 81% 30.14 in 10.0 mi Calm Calm - N/A   Clear
1:15 AM 33.8 °F 30.2 °F 87% 30.14 in 10.0 mi Calm Calm - N/A   Clear
1:35 AM 32.0 °F 28.4 °F 87% 30.15 in 10.0 mi Calm Calm - N/A   Clear
1:55 AM 32.0 °F 30.2 °F 93% 30.15 in 10.0 mi Calm Calm - N/A   Clear
2:15 AM 32.0 °F 28.4 °F 87% 30.14 in 10.0 mi Calm Calm - N/A   Clear
2:35 AM 32.0 °F 28.4 °F 87% 30.14 in 10.0 mi Calm Calm - N/A   Clear
2:55 AM 32.0 °F 28.4 °F 87% 30.14 in 10.0 mi Calm Calm - N/A   Clear
3:15 AM 32.0 °F 30.2 °F 93% 30.15 in 10.0 mi Calm Calm - N/A   Clear
3:35 AM 32.0 °F 28.4 °F 87% 30.15 in 10.0 mi Calm Calm - N/A   Clear
3:55 AM 32.0 °F 28.4 °F 87% 30.15 in 10.0 mi Calm Calm - N/A   Clear
4:15 AM 30.2 °F 28.4 °F 93% 30.16 in 10.0 mi Calm Calm - N/A   Clear
4:35 AM 30.2 °F 26.6 °F 86% 30.16 in 10.0 mi Calm Calm - N/A   Clear
4:55 AM 30.2 °F 26.6 °F 86% 30.16 in 10.0 mi Calm Calm - N/A   Clear
5:15 AM 30.2 °F 28.4 °F 93% 30.16 in 10.0 mi Calm Calm - N/A   Clear
5:35 AM 30.2 °F 28.4 °F 93% 30.16 in 10.0 mi Calm Calm - N/A   Clear
5:55 AM 30.2 °F 26.6 °F 86% 30.17 in 10.0 mi Calm Calm - N/A   Clear
6:15 AM 30.2 °F 26.6 °F 86% 30.17 in 10.0 mi Calm Calm - N/A   Clear
6:35 AM 28.4 °F 26.6 °F 93% 30.18 in 10.0 mi Calm Calm - N/A   Clear
6:45 AM 28.4 °F 26.6 °F 93% 30.18 in 10.0 mi Calm Calm - N/A   Clear
7:45 AM 28.4 °F 26.6 °F 93% 30.21 in 10.0 mi Calm Calm - N/A   Clear
8:45 AM 35.6 °F 32.0 °F 87% 30.23 in 15.0 mi Calm Calm - N/A   Clear
9:45 AM 46.4 °F 33.8 °F 62% 30.24 in 15.0 mi Calm Calm - N/A   Clear
10:45 AM 55.4 °F 30.2 °F 38% 30.24 in 10.0 mi West 11.5 mph 20.7 mph N/A   Partly Cloudy
11:45 AM 57.2 °F 30.2 °F 36% 30.23 in 10.0 mi West 13.8 mph 21.9 mph N/A   Clear
12:45 PM 59.0 °F 30.2 °F 34% 30.21 in 10.0 mi West 12.7 mph 20.7 mph N/A   Clear
1:45 PM 60.8 °F 32.0 °F 34% 30.19 in 15.0 mi West 9.2 mph 18.4 mph N/A   Clear
2:45 PM 60.8 °F 32.0 °F 34% 30.19 in 10.0 mi West 10.4 mph 18.4 mph N/A   Clear
3:45 PM 60.8 °F 32.0 °F 34% 30.19 in 10.0 mi WSW 9.2 mph - N/A   Clear
4:45 PM 59.0 °F 32.0 °F 36% 30.20 in 10.0 mi West 8.1 mph - N/A   Mostly Cloudy
5:45 PM 57.2 °F 32.0 °F 38% 30.21 in 20.0 mi SSW 3.5 mph - N/A   Mostly Cloudy
6:45 PM 48.2 °F 33.8 °F 58% 30.24 in 10.0 mi Calm Calm - N/A   Clear
7:45 PM 42.8 °F 33.8 °F 70% 30.27 in 10.0 mi Calm Calm - N/A   Clear
8:45 PM 41.0 °F 35.6 °F 81% 30.29 in 10.0 mi Calm Calm - N/A   Clear
9:45 PM 42.8 °F 35.6 °F 76% 30.30 in 10.0 mi Calm Calm - N/A   Clear
10:55 PM 37.4 °F 33.8 °F 87% 30.31 in 10.0 mi Calm Calm - N/A   Clear
11:15 PM 39.2 °F 33.8 °F 81% 30.31 in 10.0 mi Calm Calm - N/A   Clear
11:35 PM 37.4 °F 32.0 °F 81% 30.32 in 10.0 mi Calm Calm - N/A   Clear
11:55 PM 37.4 °F 33.8 °F 87% 30.32 in 10.0 mi Calm Calm - N/A   Clear